Find OneWeb SL0325

NORAD ID: 49194 Int'l Des: 2021-083 Owner: ONEWEBN Country: UK Constellation: oneweb operational
又名: ONEWEB-0325 spacetrack, celestrak
LEOCIRCULARPOLARONEWEB_TYPE

当前视图

正在加载3D地球...

About OneWeb SL0325

OneWeb SL0325 (NORAD 49194) is a oneweb constellation satellite launched Sep 14, 2021 by ONEWEBN of UK. It operates in LEO, CIRCULAR, POLAR, ONEWEB_TYPE orbit with a mass of 148.00 kg.

即将过境

Passes for default location (London). Set your location on the main map for personalized predictions.

高度历史

Loading altitude history...

两行轨道根数

1 49194U 21083J 26263.97059379 -.00000041 00000-0 -13607-3 0 9996
2 49194 87.9158 316.4229 0002043 95.4878 264.6487 13.18687089242639
Epoch: Sep 20, 2026 • Age: 18 hours

当前状态

高度 1192.1 km
远地点 / 近地点 N/A
速度 7.26 km/s
星下点 4.47°N, 52.92°E
发射日期 Sep 14, 2021
运行时间 5 years
类型 internet

技术详情

分类 Payload
质量 148.00 kg
干质量 140.00 kg
长度 1.30 m
直径 1.00 m
跨度 5.00 m
形状 ? Trapezoid+2 pan
制造商 ONEWUS
平台类型 ARROW
阶段状态 In Orbit
所有者/国家 ONEWEBN/UK

Most Searched